Location: Sungai Bunut
(2.6333°N, 113.7333°E)
Time: 02:44:33
(UTC+00:00)

S-56A Canister/Altair - Pass Details

Date: 08 December 2023
Orbit: 640 x 2488 km, 38.9° (Epoch: 24 February)

Event Time Altitude Azimuth Distance (km) Brightness Sun altitude
Rises 12:20:38 0° 288° (WNW) 4,071 11.9 -29.4°
Reaches altitude 10° 12:23:19 10° 280° (W) 3,338 11.4 -30.0°
Maximum altitude 12:31:11 37° 215° (SW) 2,432 10.3 -31.8°
Drops below altitude 10° 12:42:21 10° 153° (SSE) 4,701 11.5 -34.3°
Sets 12:47:00 0° 145° (SE) 5,917 12.0 -35.4°
